Location: Del Oro Observatory
(38.3044°N, 104.8119°W)
Time: 12:49:51
(UTC-06:00)

Iridium 35 - Visible Passes

Search period start: 01 July 2016 00:00
Search period end: 11 July 2016 00:00
Orbit: 776 x 779 km, 86.4° (Epoch: 30 June)

Date Brightness Start Highest point End Pass type
(mag) Time Alt. Az. Time Alt. Az. Time Alt. Az.
01 Jul 5.1 01:01:58 10° N 01:06:41 73° NNE 01:06:41 73° NNE visible
02 Jul 5.7 00:28:38 10° N 00:33:12 43° ENE 00:33:12 43° ENE visible
02 Jul 6.8 02:10:21 10° NW 02:13:40 19° WNW 02:13:40 19° WNW visible
02 Jul 6.5 23:55:43 10° NNE 23:59:42 24° ENE 23:59:42 24° ENE visible
03 Jul 6.1 01:35:58 10° NNW 01:40:10 34° WNW 01:40:10 34° WNW visible
03 Jul 7.2 23:23:45 10° NE 23:26:04 13° ENE 23:26:13 13° ENE visible
04 Jul 5.3 01:02:05 10° N 01:06:41 61° NW 01:06:41 61° NW visible
05 Jul 5.3 00:28:34 10° N 00:33:13 61° NE 00:33:13 61° NE visible
05 Jul 7.2 02:11:33 10° NW 02:13:41 13° WNW 02:13:41 13° WNW visible
05 Jul 6.0 23:55:22 10° NNE 23:59:44 34° ENE 23:59:44 34° ENE visible
06 Jul 6.6 01:36:29 10° NNW 01:40:12 24° WNW 01:40:12 24° WNW visible
06 Jul 6.8 23:22:43 10° NNE 23:26:16 19° ENE 23:26:16 19° ENE visible
07 Jul 5.8 01:02:20 10° NNW 01:06:44 43° WNW 01:06:44 43° WNW visible
08 Jul 5.2 00:28:37 10° N 00:33:17 71° NNW 00:33:17 71° NNW visible
08 Jul 5.5 23:55:12 10° N 23:59:50 49° ENE 23:59:50 49° ENE visible
09 Jul 7.0 01:37:18 10° NW 01:40:18 17° WNW 01:40:18 17° WNW visible
09 Jul 6.3 23:22:11 10° NNE 23:26:23 27° ENE 23:26:23 27° ENE visible
10 Jul 6.3 01:02:44 10° NNW 01:06:51 30° WNW 01:06:51 30° WNW visible
10 Jul 7.0 22:49:54 10° NE 22:52:47 15° ENE 22:52:56 15° ENE visible
